sat.trackr.live / text

‹ back to catalog

STARLINK-30147

NORAD 57511 · 2023-113S

PAYLOAD ACTIVE UNKNOWN

§ Identity

Operator
Country
US
Launch date
2023-08-07
Launch site
AFETR
Launch vehicle
Mass (kg)
RCS (m²)

Purposes: comms

External: N2YO · Heavens-Above · Gunter

§ Orbital elements

Epoch: 2026-05-25T03:57:18.146304Z

Period
94.27 min
Inclination
42.9959°
Eccentricity
0.0000443
Mean motion
15.27585386 rev/d
Perigee alt
482.7 km
Apogee alt
483.3 km
Semi-major
6,861.2 km
B*
-5.6627e-5
RAAN
303.9674°
Arg perigee
342.0336°
Mean anomaly
18.0500°
Rev number
15,537

§ Raw data

STARLINK-301471 57511U 23113S   26145.16479336 -.00001820  00000+0 -56627-4 0  99982 57511  42.9959 303.9674 0000443 342.0336  18.0500 15.27585386155378

JSON: /api/v1/satellites/57511 · /tle

For live sub-satellite position, see the globe view (requires WebGL).

§ Visibility from observer

Set your observer location to see the next 7 days of passes ≥ 10°. The values pass through the URL so the page stays shareable.

No JS? Fill the form by hand. The geolocation button needs JavaScript.